DW4662 Weather Reports


time (UTC)temp
F
wind
direction
speed
knots
gust
knots
rain 1hr
in
rain 24hr
in
rain mn
in
humidity
%
barometer
mb
20260506102510 61 317 2.6 5.2 0.00 0.01 0.01 68 1004.4
20260506101510 61 242 0.0 0.0 0.00 0.01 0.01 66 1004.8
20260506100510 61 173 0.0 0.0 0.00 0.01 0.01 66 1004.9
20260506095510 62 173 0.0 0.0 0.00 0.01 0.01 67 1004.9
20260506094510 62 173 0.0 0.0 0.00 0.01 0.01 66 1004.9
20260506093510 62 173 0.0 0.0 0.00 0.01 0.01 68 1004.9
20260506092510 62 173 0.0 0.0 0.00 0.01 0.01 68 1004.9
20260506091510 61 173 0.0 0.0 0.00 0.01 0.01 70 1004.9
20260506090510 60 173 0.0 0.0 0.00 0.01 0.01 71 1004.9
20260506085510 60 173 0.0 0.0 0.00 0.01 0.01 74 1004.9
20260506084510 58 173 0.0 0.0 0.00 0.01 0.01 75 1004.8
20260506081510 57 173 0.0 0.0 0.00 0.01 0.01 79 1004.9
20260506080510 56 173 0.0 0.0 0.00 0.01 0.01 79 1004.9
20260506073510 55 173 0.0 0.0 0.00 0.01 0.01 84 1005.1
20260506072510 55 173 0.0 0.0 0.00 0.01 0.01 85 1005.4
20260506071510 54 173 0.0 0.0 0.00 0.01 0.01 87 1005.5
20260506070510 54 173 0.0 0.0 0.00 0.01 0.01 88 1005.4
20260506062510 51 173 0.0 0.0 0.00 0.01 0.01 91 1005.0
20260506061510 50 173 0.0 0.0 0.00 0.01 0.01 91 1005.3
20260506050510 47 173 0.0 0.0 0.00 0.01 0.01 90 1005.4
20260506044510 47 173 0.0 0.0 0.00 0.01 0.01 90 1005.5
20260506043510 47 174 0.0 0.0 0.00 0.01 0.01 90 1005.6
20260506041510 47 173 0.0 0.0 0.01 0.01 0.01 90 1005.7
20260506040510 47 175 0.0 0.0 0.01 0.01 0.01 90 1005.9
20260506035510 47 175 0.0 0.0 0.01 0.01 0.01 90 1005.9
20260506034510 47 177 0.0 0.0 0.01 0.01 0.01 89 1006.0
20260506033510 47 202 0.0 0.0 0.01 0.01 0.01 90 1006.2
20260506030510 47 202 0.0 0.0 0.00 0.00 0.00 89 1006.2
20260506025510 47 202 0.0 0.0 0.00 0.00 0.00 89 1006.3
20260506024510 48 202 0.0 0.0 0.00 0.00 0.00 89 1006.4
20260506023510 48 202 0.0 0.0 0.00 0.00 0.00 89 1006.4
20260506022510 48 202 0.0 0.0 0.00 0.00 0.00 89 1006.5
20260506021510 48 202 0.0 0.0 0.00 0.00 0.00 89 1006.6
20260506020510 48 202 0.0 0.0 0.00 0.00 0.00 89 1006.5
20260506015510 49 202 0.0 0.0 0.00 0.00 0.00 89 1006.5
20260506014510 49 202 0.0 0.0 0.00 0.00 0.00 89 1006.5
20260506013510 49 202 0.0 0.0 0.00 0.00 0.00 89 1006.6
20260506012510 49 202 0.0 0.0 0.00 0.00 0.00 89 1006.7
20260506011510 49 202 0.0 0.0 0.00 0.00 0.00 89 1007.0
20260506010510 49 202 0.0 0.0 0.00 0.00 0.00 89 1007.0
20260506005510 49 203 0.0 0.0 0.00 0.00 0.00 89 1006.9
20260506004510 49 197 0.0 0.0 0.00 0.00 0.00 89 1006.8
20260506003510 49 197 0.0 0.0 0.00 0.00 0.00 89 1006.8
20260506002510 49 198 0.0 0.0 0.00 0.00 0.00 88 1006.9
20260506001510 49 198 0.0 0.0 0.00 0.00 0.00 88 1007.0
20260505235510 49 198 0.0 1.7 0.00 0.00 0.00 87 1007.0
20260505234510 49 198 0.0 0.0 0.00 0.00 0.00 87 1007.2
20260505233510 49 198 0.0 0.0 0.00 0.00 0.00 87 1007.2
20260505232510 50 198 0.0 0.0 0.00 0.00 0.00 86 1007.5
20260505231510 50 198 0.0 0.0 0.00 0.00 0.00 86 1007.4
20260505230510 50 198 0.0 0.0 0.00 0.00 0.00 86 1007.6
20260505225510 51 198 0.0 5.2 0.00 0.00 0.00 86 1007.5
20260505224510 51 200 0.0 0.0 0.00 0.00 0.00 85 1007.5
20260505223510 51 200 0.0 0.0 0.00 0.00 0.00 85 1007.5
20260505222510 52 205 0.0 0.0 0.00 0.00 0.00 84 1007.5
20260505221509 52 209 0.0 0.0 0.00 0.00 0.00 84 1007.5
20260505215510 53 204 0.0 0.0 0.00 0.01 0.01 83 1007.5
20260505213514 53 204 0.0 0.0 0.00 0.01 0.01 83 1007.4
20260505212510 54 212 0.0 0.0 0.00 0.01 0.01 82 1007.4
20260505211510 54 209 0.0 0.0 0.00 0.01 0.01 82 1007.3
20260505210510 54 209 0.0 0.0 0.00 0.01 0.01 81 1007.2
20260505205513 54 200 0.0 0.0 0.00 0.01 0.01 81 1007.3
20260505204510 55 183 0.0 0.0 0.00 0.01 0.01 81 1007.1
20260505203510 55 187 0.0 0.0 0.00 0.01 0.01 80 1007.3
20260505201510 56 203 0.0 0.0 0.00 0.01 0.01 80 1007.3
20260505200509 56 200 0.0 0.0 0.00 0.01 0.01 80 1007.2
20260505195511 57 192 0.0 0.0 0.00 0.01 0.01 78 1007.3
20260505194509 57 198 0.0 0.0 0.00 0.01 0.01 75 1007.2
20260505193510 58 199 0.0 0.0 0.00 0.01 0.01 74 1007.3
20260505191510 59 176 0.0 0.0 0.00 0.01 0.01 72 1006.7
20260505190510 59 215 0.0 0.0 0.00 0.01 0.01 71 1006.3
20260505185509 59 235 0.0 0.0 0.00 0.01 0.01 70 1006.2
20260505184510 60 236 0.0 0.0 0.00 0.01 0.01 69 1006.2
20260505182509 60 257 4.3 9.6 0.00 0.01 0.01 68 1006.0
20260505181510 61 234 2.6 6.1 0.00 0.01 0.01 68 1005.9
20260505180510 61 227 0.0 0.0 0.00 0.01 0.01 67 1005.7
20260505175511 61 227 0.0 0.0 0.00 0.01 0.01 66 1005.6
20260505174509 62 227 0.0 6.1 0.00 0.01 0.01 66 1005.7
20260505172509 62 250 0.0 2.6 0.00 0.01 0.01 65 1005.5
20260505170509 64 234 4.3 7.0 0.00 0.01 0.01 61 1005.4
20260505165509 64 276 0.0 2.6 0.00 0.01 0.01 61 1005.2
20260505164509 64 276 0.0 0.0 0.00 0.01 0.01 62 1005.2
20260505163510 64 276 0.0 0.0 0.00 0.01 0.01 62 1005.2
20260505162509 64 276 0.0 0.0 0.00 0.01 0.01 63 1005.2
20260505161509 64 276 0.0 3.5 0.00 0.01 0.01 66 1005.5
20260505160509 63 280 0.0 0.0 0.00 0.01 0.01 65 1005.4
20260505151510 63 288 0.0 0.0 0.00 0.01 0.01 67 1005.5
20260505150509 63 296 0.0 0.0 0.00 0.01 0.01 67 1005.6
20260505124510 63 208 0.0 0.0 0.01 0.01 0.01 70 1006.4
20260505123510 63 207 0.0 0.0 0.01 0.01 0.01 72 1006.4
20260505120510 64 190 0.0 0.0 0.00 0.00 0.00 64 1006.5
20260505115509 64 235 0.0 0.9 0.00 0.00 0.00 63 1006.3
20260505114510 65 197 0.0 0.0 0.00 0.00 0.00 64 1006.3
20260505113510 65 196 0.0 0.0 0.00 0.00 0.00 67 1006.2
20260505111509 64 244 0.0 0.0 0.00 0.00 0.00 66 1005.9
20260505110510 64 242 0.0 0.0 0.00 0.00 0.00 67 1005.8